Home > Time Zones > World Clock > Weather > U.S.A. > Erie > Past weeks

Flag for U.S.A. Weather past 2 weeks in Erie, Pennsylvania, U.S.A.

Now
45 °F

Overcast.


Feels Like: 44 °F
Forecast: 28 / 44 °F
Wind: 3 mph from Northwest

Location: Erie International Airport

Current Time: Apr 1, 2015 at 5:46:37 PM

Latest Report: Apr 1, 2015 at 4:51 PM


Visibility: 10 mi

Pressure: 30.16 "Hg

Humidity: 56%

Dew point: 30 °F

Location of ErieLocation

Historic Weather in Erie — Graph

°F

Erie temperature yesterday

Maximum temperature yesterday: 37 °F (at 5:51 PM)
Minimum temperature yesterday: 28 °F (at 12:51 AM)
Average temperature yesterday: 33 °F

Past Weeks' High & Low Weather Summary

 TemperatureHumidityPressure
High52 °F (Mar 25, 4:51 PM)93% (Mar 21, 12:51 PM)30.40 "Hg (Mar 21, 12:51 PM)
Low16 °F (Mar 23, 5:51 AM)25% (Mar 29, 3:51 PM)29.74 "Hg (Mar 30, 3:51 AM)
Average31 °F66%30.11 "Hg
* Reported Mar 17 3:51 PM — Apr 1 3:51 PM, Erie, Weather by CustomWeather, © 2015

Note: Actual official high and low records may vary slightly from our data, if they occured in-between our weather recording intervals... More about our weather records

Advertising

Erie weather history for previous 24 hours

 ConditionsComfort  
Time TempWeatherWind HumidityBarometerVisibility
3:51 PM
Wed, Apr 1
44 °FPartly sunny.5 mph58%30.17 "Hg10 mi
2:51 PM45 °FPartly sunny.8 mph56%30.18 "Hg10 mi
1:51 PM45 °FOvercast.3 mph53%30.19 "Hg10 mi
12:51 PM41 °FOvercast.6 mph62%30.19 "Hg10 mi
11:51 AM38 °FOvercast.3 mph70%30.19 "Hg10 mi
10:51 AM36 °FOvercast.No wind75%30.18 "Hg10 mi
9:51 AM34 °FOvercast.No wind82%30.16 "Hg8 mi
8:51 AM33 °FOvercast.No wind85%30.13 "Hg7 mi
7:51 AM32 °FMostly cloudy.No wind82%30.11 "Hg6 mi
6:51 AM30 °FOvercast.3 mph89%30.09 "Hg8 mi
5:51 AM27 °FOvercast.No wind92%30.07 "Hg7 mi
4:51 AM26 °FPassing clouds.3 mph88%30.05 "Hg7 mi
3:51 AM26 °FClear.5 mph88%30.04 "Hg7 mi
2:51 AM27 °FClear.3 mph89%30.02 "Hg10 mi
1:51 AM29 °FClear.5 mph85%30.03 "Hg10 mi
12:51 AM30 °FClear.5 mph82%30.02 "Hg10 mi
11:51 PM
Tue, Mar 31
31 °FClear.3 mph82%30.02 "Hg10 mi
10:51 PM32 °FClear.8 mph79%30.01 "Hg10 mi
9:51 PM33 °FPassing clouds.8 mph82%29.98 "Hg10 mi
8:51 PM33 °FClear.8 mph75%29.96 "Hg10 mi
7:51 PM34 °FScattered clouds.6 mph76%29.94 "Hg10 mi
6:51 PM37 °FSunny.5 mph65%29.91 "Hg10 mi
5:51 PM37 °FSunny.No wind65%29.89 "Hg10 mi
Weather by CustomWeather, © 2015

See weather overviewHow to use our weather pages